,

(GMT )
Swan River

Weather History for CWEQ - August, 2013

Change the Weather History Date:

Friday, August 30, 2013

  Actual Average Record
Temperature  
Mean Temperature 72 °F -  
Max Temperature 89 °F - - ()
Min Temperature 56 °F - - ()
Cooling Degree Days 8    
Growing Degree Days 22 (Base 50)    
Moisture  
Dew Point 58 °F    
Average Humidity 70    
Maximum Humidity 98    
Minimum Humidity 20    
Precipitation  
Precipitation 0.00 in - - ()
Sea Level Pressure  
Sea Level Pressure 29.81 in    
Wind  
Wind Speed 5 mph ()    
Max Wind Speed 17 mph    
Max Gust Speed 26 mph    
T = Trace of Precipitation, MM = Missing Value Source: Averaged Metar Reports

Daily Weather History Graph

Daily Weather History Graph

Search for Another Location

Airport or City:

Trip Planner

Search our weather history database for the weather conditions in past years. The results will help you decide how hot, cold, wet, or windy it might be!

Date:

Astronomy

Aug. 30, 2013 Rise Set
Actual Time 6:53 AM CDT 8:35 PM CDT
Civil Twilight 6:18 AM CDT 9:11 PM CDT
Nautical Twilight 5:33 AM CDT 9:55 PM CDT
Astronomical Twilight 4:44 AM CDT 10:44 PM CDT
Moon 1:10 AM CDT (8/30) 5:15 PM CDT (8/30)
Length of Visible Light 14h 53m
Length of Day
13h 42m
Waning Crescent, 29% of the Moon is Illuminated
Aug 30
Waning Crescent
Sep 5
New
Sep 12
First Quarter
Sep 19
Full
Sep 26
Last Quarter

Hourly Weather History & Observations

Time (CDT) Temp. Heat Index Dew Point Humidity Pressure Visibility Wind Dir Wind Speed Gust Speed Precip Events Conditions
12:00 AM 59.0 °F - 57.4 °F 94% 30.01 in - NNE 3.5 mph - N/A   Unknown
1:00 AM 58.6 °F - 57.6 °F 96% 30.02 in - NNE 3.5 mph - N/A   Unknown
2:00 AM 58.6 °F - 57.7 °F 97% 30.00 in - NE 5.8 mph - N/A   Unknown
3:00 AM 58.6 °F - 57.9 °F 97% 29.98 in - NE 4.6 mph - N/A   Unknown
4:00 AM 58 °F - 57 °F 97% 29.98 in - North 2.3 mph - -  
4:00 AM 58.1 °F - 57.4 °F 97% 29.98 in - North 2.3 mph - N/A   Unknown
5:00 AM 56.7 °F - 55.9 °F 97% 29.97 in - NNW 1.2 mph - N/A   Unknown
6:00 AM 56.7 °F - 56.1 °F 98% 29.95 in - North 3.5 mph - N/A   Unknown
7:00 AM 58 °F - 57 °F 97% 29.94 in - North 2.3 mph - -  
7:00 AM 57.9 °F - 57.4 °F 98% 29.94 in - North 2.3 mph - N/A   Unknown
8:00 AM 58.1 °F - 57.6 °F 98% 29.92 in - North 2.3 mph - N/A   Unknown
9:00 AM 60.4 °F - 59.2 °F 96% 29.91 in - NE 4.6 mph - N/A   Unknown
10:00 AM 63 °F - 61 °F 89% 29.87 in - North 3.5 mph - -  
10:00 AM 63.1 °F - 60.6 °F 91% 29.87 in - North 3.5 mph - N/A   Unknown
11:00 AM 67.1 °F - 62.8 °F 86% 29.83 in - NNE 3.5 mph - N/A   Unknown
12:00 PM 76.1 °F - 65.5 °F 70% 29.78 in - NW 2.3 mph - N/A   Unknown
1:00 PM 83 °F - 66 °F 48% 29.73 in - WSW 11.5 mph - -  
1:00 PM 83.3 °F 85.7 °F 66.4 °F 57% 29.73 in - WSW 11.5 mph 24.2 mph N/A   Unknown
2:00 PM 86.0 °F 87.9 °F 65.1 °F 50% 29.71 in - SW 16.1 mph 21.9 mph N/A   Unknown
3:00 PM 88.0 °F 88.1 °F 61.3 °F 41% 29.68 in - SW 15.0 mph 26.5 mph N/A   Unknown
4:00 PM 89 °F - 53 °F 20% 29.67 in - WSW 16.1 mph - -  
4:00 PM 89.2 °F 86.9 °F 53.4 °F 29% 29.67 in - WSW 16.1 mph 24.2 mph N/A   Unknown
5:00 PM 88.3 °F - 52.0 °F 29% 29.66 in - WSW 16.1 mph 24.2 mph N/A   Unknown
6:00 PM 87.1 °F - 50.2 °F 28% 29.65 in - West 17.3 mph 25.3 mph N/A   Unknown
7:00 PM 84 °F - 51 °F 22% 29.65 in - West 11.5 mph - -  
7:00 PM 84.2 °F - 51.4 °F 32% 29.65 in - West 11.5 mph 18.4 mph N/A   Unknown
8:00 PM 77.4 °F - 53.4 °F 43% 29.67 in - West 8.1 mph - N/A   Unknown
9:00 PM 69.8 °F - 55.6 °F 61% 29.66 in - SW 5.8 mph - N/A   Unknown
10:00 PM 69.1 °F - 56.3 °F 64% 29.66 in - SW 8.1 mph - N/A   Unknown
11:00 PM 65.5 °F - 55.6 °F 70% 29.67 in - SW 4.6 mph - N/A   Unknown